Location: Meanaryar
(48.4161°N, 4.7315°W)
Time: 07:00:04
(UTC+00:00)

Cosmos 1725 Rocket - Pass Details

Date: 18 September 2020
Orbit: 961 x 991 km, 82.9° (Epoch: 23 October)

Event Time Altitude Azimuth Distance (km) Brightness Sun altitude
Rises 18:46:01 0° 191° (S) 3,683 7.1 -4.4°
Reaches altitude 10° 18:48:32 10° 192° (SSW) 2,736 6.4 -4.8°
Maximum altitude 18:54:49 79° 279° (W) 1,003 4.3 -5.8°
Drops below altitude 10° 19:01:06 10° 7° (N) 2,733 6.4 -6.9°
Sets 19:03:37 0° 9° (N) 3,680 7.0 -7.3°
